Orbital Elements
Epoch 2003 Aug. 29.0 TT = JDT 2452880.5
T 2003 Sept. 5.80930 TT MPC
q 1.5054541 (2000.0) P Q
n 0.11235852 Peri. 32.72085 +0.94941220 -0.30682985
a 4.2533591 Node 344.71136 +0.20468586 +0.76612920
e 0.6460552 Incl. 14.69125 +0.23815998 +0.56471364
P 8.77
From 441 observations 2003 July 30-2012 June 23, mean residual 0".6.
|